This is the latest recevied weather packets stored in our database for station/object W4CKA. If no packets are shown the sender has not sent any weather packets the latest 10 day(s).
| Time | Temp. | Humidity | Pressure | Rain* | Wind** | Luminosity | Snow |
|---|---|---|---|---|---|---|---|
| 1777839714 | 17.78° C | 38% | 1059.9 hPa | 0 mm | - | 586 W/m² | - |
| 1777839109 | 17.78° C | 42% | 1060.1 hPa | 0 mm | - | 533 W/m² | - |
| 1777838507 | 17.22° C | 38% | 1060 hPa | 0 mm | - | 632 W/m² | - |
| 1777837907 | 17.22° C | 37% | 1060.4 hPa | 0 mm | - | 613 W/m² | - |
| 1777837305 | 17.78° C | 39% | 1060.5 hPa | 0 mm | - | 528 W/m² | - |
| 1777836704 | 17.22° C | 39% | 1060.5 hPa | 0 mm | - | 651 W/m² | - |
| 1777836100 | 16.67° C | 43% | 1060.9 hPa | 0 mm | - | 690 W/m² | - |
| 1777835500 | 16.67° C | 39% | 1060.9 hPa | 0 mm | - | 684 W/m² | - |
| 1777834900 | 16.11° C | 45% | 1060.8 hPa | 0 mm | - | 674 W/m² | - |
| 1777834298 | 16.11° C | 40% | 1061.3 hPa | 0 mm | - | 718 W/m² | - |
| 1777833696 | 16.67° C | 43% | 1061 hPa | 0 mm | - | 674 W/m² | - |
| 1777833096 | 16.11° C | 39% | 1061.4 hPa | 0 mm | - | 699 W/m² | - |
| 1777832492 | 15.56° C | 44% | 1061.5 hPa | 0 mm | - | 688 W/m² | - |
| 1777831891 | 16.11° C | 40% | 1061.7 hPa | 0 mm | - | 716 W/m² | - |
| 1777831286 | 16.11° C | 41% | 1061.5 hPa | 0 mm | - | 734 W/m² | - |
| 1777830686 | 15° C | 40% | 1061.9 hPa | 0 mm | - | 686 W/m² | - |
| 1777830085 | 15° C | 47% | 1061.6 hPa | 0 mm | - | 696 W/m² | - |
| 1777829483 | 15° C | 47% | 1061.9 hPa | 0 mm | - | 673 W/m² | - |
| 1777828884 | 14.44° C | 42% | 1062 hPa | 0 mm | - | 662 W/m² | - |
| 1777828283 | 15° C | 44% | 1062.3 hPa | 0 mm | - | 696 W/m² | - |
| 1777827682 | 14.44° C | 40% | 1062.3 hPa | 0 mm | - | 673 W/m² | - |
| 1777827082 | 13.33° C | 44% | 1062.6 hPa | 0 mm | - | 673 W/m² | - |
| 1777826481 | 15° C | 43% | 1062.7 hPa | 0 mm | - | 676 W/m² | - |
| 1777825881 | 14.44° C | 42% | 1062.8 hPa | 0 mm | - | 557 W/m² | - |
| 1777825276 | 13.33° C | 46% | 1063.1 hPa | 0 mm | - | 688 W/m² | - |
* Rain latest hour (hover to see other rain measurements)
** Current wind speed in m/s (hover to see current wind gust speed)